"datetime","temp","dp","rain_mm","uv","solar","mb","wind_mph","gust_mph","windchill","rh"
"2018-01-24 00:00:00",9.8,7.0,0.0,0.0,0,1013.7,7,16,6.6,83
"2018-01-24 00:01:00",9.8,7.0,0.0,0.0,0,1013.7,5,14,6.9,83
"2018-01-24 00:02:00",9.8,7.0,0.0,0.0,0,1013.6,2,4,9.1,83
"2018-01-24 00:03:00",9.8,7.0,0.0,0.0,0,1013.8,3,5,8.8,83
"2018-01-24 00:04:00",9.8,7.0,0.0,0.0,0,1013.7,2,4,9.1,83
"2018-01-24 00:05:00",9.8,7.0,0.0,0.0,0,1013.7,3,5,8.8,83
"2018-01-24 00:06:00",9.8,7.0,0.0,0.0,0,1013.6,3,7,8.2,83
"2018-01-24 00:07:00",9.8,7.0,0.0,0.0,0,1013.7,8,16,6.6,83
"2018-01-24 00:08:00",9.8,7.0,0.0,0.0,0,1013.6,4,9,7.7,83
"2018-01-24 00:09:00",9.9,7.1,0.0,0.0,0,1013.6,3,3,"",83
"2018-01-24 00:10:00",9.8,7.0,0.0,0.0,0,1013.6,3,4,9.1,83
"2018-01-24 00:11:00",9.9,7.1,0.0,0.0,0,1013.5,3,5,8.9,83
"2018-01-24 00:12:00",9.9,7.1,0.0,0.0,0,1013.5,5,14,7.0,83
"2018-01-24 00:13:00",9.9,7.1,0.0,0.0,0,1013.5,6,14,7.0,83
"2018-01-24 00:14:00",9.9,7.1,0.0,0.0,0,1013.5,7,13,7.2,83
"2018-01-24 00:15:00",9.9,7.1,0.0,0.0,0,1013.4,9,17,6.6,83
"2018-01-24 00:16:00",9.9,7.1,0.0,0.0,0,1013.5,8,17,6.6,83
"2018-01-24 00:17:00",9.9,7.1,0.0,0.0,0,1013.4,4,7,8.3,83
"2018-01-24 00:18:00",9.9,7.1,0.0,0.0,0,1013.5,8,12,7.3,83
"2018-01-24 00:19:00",9.9,7.1,0.0,0.0,0,1013.4,7,10,7.7,83
"2018-01-24 00:20:00",9.9,7.1,0.0,0.0,0,1013.4,5,11,7.5,83
"2018-01-24 00:21:00",10.0,7.2,0.0,0.0,0,1013.4,6,13,7.2,83
"2018-01-24 00:22:00",10.0,7.2,0.0,0.0,0,1013.3,4,9,8.0,83
"2018-01-24 00:23:00",10.0,7.2,0.0,0.0,0,1013.3,8,18,6.6,83
"2018-01-24 00:24:00",10.0,7.2,0.0,0.0,0,1013.3,4,7,8.4,83
"2018-01-24 00:25:00",10.0,7.2,0.0,0.0,0,1013.3,4,7,8.4,83
"2018-01-24 00:26:00",10.0,7.2,0.0,0.0,0,1013.3,3,5,9.0,83
"2018-01-24 00:27:00",10.0,7.2,0.0,0.0,0,1013.3,6,13,7.3,83
"2018-01-24 00:28:00",10.0,7.2,0.0,0.0,0,1013.2,6,11,7.6,83
"2018-01-24 00:29:00",10.0,7.2,0.0,0.0,0,1013.3,4,5,9.0,83
"2018-01-24 00:30:00",10.0,7.2,0.0,0.0,0,1013.3,4,9,8.0,83
"2018-01-24 00:31:00",10.0,7.2,0.0,0.0,0,1013.2,4,6,8.7,83
"2018-01-24 00:32:00",10.0,7.2,0.0,0.0,0,1013.2,5,6,8.7,83
"2018-01-24 00:33:00",10.0,7.2,0.0,0.0,0,1013.2,6,11,7.6,83
"2018-01-24 00:34:00",10.0,7.2,0.0,0.0,0,1013.2,6,12,7.4,83
"2018-01-24 00:35:00",10.1,7.3,0.0,0.0,0,1013.2,5,10,8.7,83
"2018-01-24 00:36:00",10.0,7.2,0.0,0.0,0,1013.1,7,15,7.8,83
"2018-01-24 00:37:00",10.1,7.3,0.0,0.0,0,1013.1,6,12,7.4,83
"2018-01-24 00:38:00",10.1,7.3,0.0,0.0,0,1013.1,5,8,"",83
"2018-01-24 00:39:00",10.1,7.3,0.0,0.0,0,1013.2,4,7,"",83
"2018-01-24 00:40:00",10.1,7.3,0.0,0.0,0,1013.1,6,15,"",83
"2018-01-24 00:41:00",10.1,7.3,0.0,0.0,0,1013.0,3,5,"",83
"2018-01-24 00:42:00",10.1,7.3,0.0,0.0,0,1013.0,3,6,"",83
"2018-01-24 00:43:00",10.1,7.3,0.0,0.0,0,1013.1,4,6,"",83
"2018-01-24 00:44:00",10.1,7.3,0.0,0.0,0,1013.0,4,6,"",83
"2018-01-24 00:45:00",10.1,7.3,0.0,0.0,0,1012.9,3,5,"",83
"2018-01-24 00:46:00",10.2,7.4,0.0,0.0,0,1012.9,4,6,"",83
"2018-01-24 00:47:00",10.2,7.4,0.0,0.0,0,1012.9,2,3,"",83
"2018-01-24 00:48:00",10.2,7.4,0.0,0.0,0,1012.9,4,5,"",83
"2018-01-24 00:49:00",10.1,7.3,0.0,0.0,0,1012.8,3,5,"",83
"2018-01-24 00:50:00",10.2,7.4,0.0,0.0,0,1012.8,3,5,"",83
"2018-01-24 00:51:00",10.2,7.4,0.0,0.0,0,1012.9,4,8,"",83
"2018-01-24 00:52:00",10.2,7.4,0.0,0.0,0,1012.8,6,9,"",83
"2018-01-24 00:53:00",10.2,7.4,0.0,0.0,0,1012.8,3,4,"",83
"2018-01-24 00:54:00",10.2,7.4,0.0,0.0,0,1012.8,3,6,"",83
"2018-01-24 00:55:00",10.2,7.4,0.0,0.0,0,1012.8,3,4,"",83
"2018-01-24 00:56:00",10.2,7.4,0.0,0.0,0,1012.8,2,3,"",83
"2018-01-24 00:57:00",10.2,7.4,0.0,0.0,0,1012.8,2,5,"",83
"2018-01-24 00:58:00",10.2,7.4,0.0,0.0,0,1012.8,3,6,"",83
"2018-01-24 00:59:00",10.2,7.4,0.0,0.0,0,1012.7,7,10,"",83
"2018-01-24 01:00:00",10.2,7.4,0.0,0.0,0,1012.7,3,10,"",83
"2018-01-24 01:01:00",10.2,7.4,0.0,0.0,0,1012.7,3,4,"",83
"2018-01-24 01:02:00",10.2,7.4,0.0,0.0,0,1012.7,3,4,"",83
"2018-01-24 01:03:00",10.2,7.4,0.0,0.0,0,1012.6,3,4,"",83
"2018-01-24 01:04:00",10.2,7.4,0.0,0.0,0,1012.6,3,7,"",83
"2018-01-24 01:05:00",10.2,7.4,0.0,0.0,0,1012.6,3,4,"",83
"2018-01-24 01:06:00",10.2,7.4,0.0,0.0,0,1012.6,3,5,"",83
"2018-01-24 01:07:00",10.2,7.4,0.0,0.0,0,1012.5,2,4,"",83
"2018-01-24 01:08:00",10.2,7.4,0.0,0.0,0,1012.6,4,6,"",83
"2018-01-24 01:09:00",10.2,7.4,0.0,0.0,0,1012.5,3,5,"",83
"2018-01-24 01:10:00",10.2,7.4,0.0,0.0,0,1012.6,4,9,"",83
"2018-01-24 01:11:00",10.2,7.4,0.0,0.0,0,1012.6,3,4,"",83
"2018-01-24 01:12:00",10.2,7.4,0.0,0.0,0,1012.5,3,4,"",83
"2018-01-24 01:13:00",10.2,7.4,0.0,0.0,0,1012.6,3,6,"",83
"2018-01-24 01:14:00",10.3,7.5,0.0,0.0,0,1012.5,5,10,"",83
"2018-01-24 01:15:00",10.3,7.5,0.0,0.0,0,1012.5,3,5,"",83
"2018-01-24 01:16:00",10.3,7.5,0.0,0.0,0,1012.6,3,6,"",83
"2018-01-24 01:17:00",10.3,7.5,0.0,0.0,0,1012.5,2,3,"",83
"2018-01-24 01:18:00",10.3,7.5,0.0,0.0,0,1012.5,5,8,"",83
"2018-01-24 01:19:00",10.3,7.5,0.0,0.0,0,1012.4,4,6,"",83
"2018-01-24 01:20:00",10.3,7.5,0.0,0.0,0,1012.4,5,7,"",83
"2018-01-24 01:21:00",10.3,7.5,0.0,0.0,0,1012.4,5,11,"",83
"2018-01-24 01:22:00",10.3,7.5,0.0,0.0,0,1012.4,5,9,"",83
"2018-01-24 01:23:00",10.3,7.5,0.0,0.0,0,1012.4,5,7,"",83
"2018-01-24 01:24:00",10.3,7.5,0.0,0.0,0,1012.4,3,5,"",83
"2018-01-24 01:25:00",10.3,7.5,0.0,0.0,0,1012.4,4,9,"",83
"2018-01-24 01:26:00",10.3,7.5,0.0,0.0,0,1012.4,4,8,"",83
"2018-01-24 01:27:00",10.3,7.5,0.0,0.0,0,1012.4,2,4,"",83
"2018-01-24 01:28:00",10.3,7.5,0.0,0.0,0,1012.3,4,8,"",83
"2018-01-24 01:29:00",10.3,7.5,0.0,0.0,0,1012.3,4,6,"",83
"2018-01-24 01:30:00",10.3,7.5,0.0,0.0,0,1012.3,2,4,"",83
"2018-01-24 01:31:00",10.3,7.5,0.0,0.0,0,1012.2,6,12,"",83
"2018-01-24 01:32:00",10.3,7.5,0.0,0.0,0,1012.2,3,6,"",83
"2018-01-24 01:33:00",10.4,7.6,0.0,0.0,0,1012.2,3,4,"",83
"2018-01-24 01:34:00",10.4,7.6,0.0,0.0,0,1012.2,5,12,"",83
"2018-01-24 01:35:00",10.4,7.6,0.0,0.0,0,1012.3,7,10,"",83
"2018-01-24 01:36:00",10.4,7.6,0.0,0.0,0,1012.1,4,6,"",83
"2018-01-24 01:37:00",10.4,7.6,0.0,0.0,0,1012.2,7,15,"",83
"2018-01-24 01:38:00",10.4,7.6,0.0,0.0,0,1012.1,7,12,"",83
"2018-01-24 01:39:00",10.4,7.6,0.0,0.0,0,1012.1,4,8,"",83
"2018-01-24 01:40:00",10.4,7.6,0.0,0.0,0,1012.1,6,13,"",83
"2018-01-24 01:41:00",10.4,7.6,0.0,0.0,0,1012.1,4,7,"",83
"2018-01-24 01:42:00",10.5,7.7,0.0,0.0,0,1012.1,4,7,"",83
"2018-01-24 01:43:00",10.5,7.7,0.0,0.0,0,1012.0,4,6,"",83
"2018-01-24 01:44:00",10.5,7.7,0.0,0.0,0,1012.1,5,9,"",83
"2018-01-24 01:45:00",10.5,7.7,0.0,0.0,0,1012.0,5,6,"",83
"2018-01-24 01:46:00",10.5,7.7,0.0,0.0,0,1012.0,6,9,"",83
"2018-01-24 01:47:00",10.5,7.7,0.0,0.0,0,1012.0,4,6,"",83
"2018-01-24 01:48:00",10.6,7.8,0.0,0.0,0,1011.8,3,7,"",83
"2018-01-24 01:49:00",10.6,7.8,0.0,0.0,0,1011.8,2,7,"",83
"2018-01-24 01:50:00",10.6,7.8,0.0,0.0,0,1011.9,4,8,"",83
"2018-01-24 01:51:00",10.6,7.8,0.0,0.0,0,1011.8,5,9,"",83
"2018-01-24 01:52:00",10.6,7.8,0.0,0.0,0,1011.8,3,4,"",83
"2018-01-24 01:53:00",10.6,7.8,0.0,0.0,0,1011.8,6,10,"",83
"2018-01-24 01:54:00",10.6,7.8,0.0,0.0,0,1011.8,4,7,"",83
"2018-01-24 01:55:00",10.6,7.8,0.0,0.0,0,1011.8,2,3,"",83
"2018-01-24 01:56:00",10.6,7.8,0.0,0.0,0,1011.8,4,8,"",83
"2018-01-24 01:57:00",10.6,7.8,0.0,0.0,0,1011.7,3,7,"",83
"2018-01-24 01:58:00",10.6,7.8,0.0,0.0,0,1011.7,3,10,"",83
"2018-01-24 01:59:00",10.6,7.8,0.0,0.0,0,1011.7,3,5,"",83
"2018-01-24 02:00:00",10.6,7.8,0.0,0.0,0,1011.7,4,5,"",83
"2018-01-24 02:01:00",10.6,7.8,0.0,0.0,0,1011.6,3,4,"",83
"2018-01-24 02:02:00",10.6,7.8,0.0,0.0,0,1011.6,5,9,"",83
"2018-01-24 02:03:00",10.7,7.9,0.0,0.0,0,1011.6,5,9,"",83
"2018-01-24 02:04:00",10.7,7.9,0.0,0.0,0,1011.6,7,12,"",83
"2018-01-24 02:05:00",10.7,7.9,0.0,0.0,0,1011.5,4,9,"",83
"2018-01-24 02:06:00",10.7,7.9,0.0,0.0,0,1011.5,5,9,"",83
"2018-01-24 02:07:00",10.7,7.9,0.0,0.0,0,1011.6,6,8,"",83
"2018-01-24 02:08:00",10.7,7.9,0.0,0.0,0,1011.6,8,16,"",83
"2018-01-24 02:09:00",10.7,7.9,0.0,0.0,0,1011.6,4,8,"",83
"2018-01-24 02:10:00",10.7,7.9,0.0,0.0,0,1011.5,6,12,"",83
"2018-01-24 02:11:00",10.7,7.9,0.0,0.0,0,1011.5,5,12,"",83
"2018-01-24 02:12:00",10.7,7.9,0.0,0.0,0,1011.5,6,10,"",83
"2018-01-24 02:13:00",10.7,7.9,0.0,0.0,0,1011.4,8,14,"",83
"2018-01-24 02:14:00",10.8,8.0,0.0,0.0,0,1011.4,6,11,"",83
"2018-01-24 02:15:00",10.8,8.0,0.0,0.0,0,1011.5,5,10,"",83
"2018-01-24 02:16:00",10.8,8.0,0.0,0.0,0,1011.4,6,10,"",83
"2018-01-24 02:17:00",10.8,8.0,0.0,0.0,0,1011.4,3,5,"",83
"2018-01-24 02:18:00",10.8,8.0,0.0,0.0,0,1011.4,6,12,"",83
"2018-01-24 02:19:00",10.8,8.0,0.0,0.0,0,1011.4,7,15,"",83
"2018-01-24 02:20:00",10.8,8.0,0.0,0.0,0,1011.3,9,14,"",83
"2018-01-24 02:21:00",10.8,8.0,0.0,0.0,0,1011.4,4,7,"",83
"2018-01-24 02:22:00",10.8,8.0,0.0,0.0,0,1011.4,3,6,"",83
"2018-01-24 02:23:00",10.8,8.0,0.0,0.0,0,1011.3,5,8,"",83
"2018-01-24 02:24:00",10.8,8.0,0.0,0.0,0,1011.4,8,17,"",83
"2018-01-24 02:25:00",10.8,8.0,0.0,0.0,0,1011.4,6,16,"",83
"2018-01-24 02:26:00",10.8,8.0,0.0,0.0,0,1011.3,1,3,"",83
"2018-01-24 02:27:00",10.8,8.0,0.0,0.0,0,1011.3,6,15,"",83
"2018-01-24 02:28:00",10.8,8.0,0.0,0.0,0,1011.2,6,13,"",83
"2018-01-24 02:29:00",10.8,8.0,0.0,0.0,0,1011.3,3,5,"",83
"2018-01-24 02:30:00",10.8,8.0,0.0,0.0,0,1011.3,4,8,"",83
"2018-01-24 02:31:00",10.8,8.0,0.0,0.0,0,1011.3,6,11,"",83
"2018-01-24 02:32:00",10.8,8.0,0.0,0.0,0,1011.2,4,5,"",83
"2018-01-24 02:33:00",10.8,8.0,0.0,0.0,0,1011.2,7,12,"",83
"2018-01-24 02:34:00",10.8,8.0,0.0,0.0,0,1011.1,4,9,"",83
"2018-01-24 02:35:00",10.8,8.0,0.0,0.0,0,1011.1,2,4,"",83
"2018-01-24 02:36:00",10.8,8.0,0.0,0.0,0,1011.1,4,7,"",83
"2018-01-24 02:37:00",10.8,8.0,0.0,0.0,0,1011.0,5,7,"",83
"2018-01-24 02:38:00",10.8,8.0,0.0,0.0,0,1011.0,3,6,"",83
"2018-01-24 02:39:00",10.8,8.0,0.0,0.0,0,1011.2,6,13,"",83
"2018-01-24 02:40:00",10.9,8.1,0.0,0.0,0,1010.9,3,5,"",83
"2018-01-24 02:41:00",10.9,8.1,0.0,0.0,0,1010.9,5,8,"",83
"2018-01-24 02:42:00",10.9,8.1,0.0,0.0,0,1010.9,4,7,"",83
"2018-01-24 02:43:00",10.9,8.1,0.0,0.0,0,1010.9,3,6,"",83
"2018-01-24 02:44:00",10.9,8.1,0.0,0.0,0,1010.9,4,6,"",83
"2018-01-24 02:45:00",10.9,8.1,0.0,0.0,0,1010.9,5,11,"",83
"2018-01-24 02:46:00",10.9,8.1,0.0,0.0,0,1010.9,5,8,"",83
"2018-01-24 02:47:00",10.9,8.1,0.0,0.0,0,1010.9,5,9,"",83
"2018-01-24 02:48:00",10.9,8.1,0.0,0.0,0,1010.9,6,10,"",83
"2018-01-24 02:49:00",10.9,8.1,0.0,0.0,0,1010.8,3,7,"",83
"2018-01-24 02:50:00",10.9,8.1,0.0,0.0,0,1010.8,4,5,"",83
"2018-01-24 02:51:00",10.9,8.1,0.0,0.0,0,1010.7,4,8,"",83
"2018-01-24 02:52:00",10.9,8.1,0.0,0.0,0,1010.6,6,13,"",83
"2018-01-24 02:53:00",10.9,7.9,0.0,0.0,0,1010.6,3,7,"",82
"2018-01-24 02:54:00",10.9,7.9,0.0,0.0,0,1010.6,3,6,"",82
"2018-01-24 02:55:00",10.9,7.9,0.0,0.0,0,1010.6,3,6,"",82
"2018-01-24 02:56:00",10.9,8.1,0.0,0.0,0,1010.6,3,5,"",83
"2018-01-24 02:57:00",10.9,7.9,0.0,0.0,0,1010.7,3,6,"",82
"2018-01-24 02:58:00",10.9,7.9,0.0,0.0,0,1010.5,3,5,"",82
"2018-01-24 02:59:00",10.9,7.9,0.0,0.0,0,1010.5,4,5,"",82
"2018-01-24 03:00:00",10.9,7.9,0.0,0.0,0,1010.6,5,10,"",82
"2018-01-24 03:01:00",10.9,7.9,0.0,0.0,0,1010.5,5,8,"",82
"2018-01-24 03:02:00",10.9,7.9,0.0,0.0,0,1010.6,8,14,"",82
"2018-01-24 03:03:00",10.9,7.9,0.0,0.0,0,1010.5,4,6,"",82
"2018-01-24 03:04:00",10.9,7.9,0.0,0.0,0,1010.4,7,12,"",82
"2018-01-24 03:05:00",10.9,7.9,0.0,0.0,0,1010.3,8,15,"",82
"2018-01-24 03:06:00",10.9,7.9,0.0,0.0,0,1010.3,6,12,"",82
"2018-01-24 03:07:00",10.9,7.9,0.0,0.0,0,1010.2,5,10,"",82
"2018-01-24 03:08:00",10.9,7.9,0.0,0.0,0,1010.4,4,8,"",82
"2018-01-24 03:09:00",10.9,7.9,0.0,0.0,0,1010.2,2,5,"",82
"2018-01-24 03:10:00",10.9,7.9,0.0,0.0,0,1010.2,5,7,"",82
"2018-01-24 03:11:00",10.9,7.9,0.0,0.0,0,1010.2,5,10,"",82
"2018-01-24 03:12:00",10.9,7.9,0.0,0.0,0,1010.0,5,10,"",82
"2018-01-24 03:13:00",10.9,7.9,0.0,0.0,0,1010.0,8,17,"",82
"2018-01-24 03:14:00",10.9,7.9,0.0,0.0,0,1010.0,8,13,"",82
"2018-01-24 03:15:00",11.0,8.0,0.0,0.0,0,1010.1,9,15,"",82
"2018-01-24 03:16:00",11.0,8.0,0.0,0.0,0,1010.1,5,12,"",82
"2018-01-24 03:17:00",11.0,8.0,0.0,0.0,0,1010.1,3,6,"",82
"2018-01-24 03:18:00",11.0,8.0,0.0,0.0,0,1010.1,3,5,"",82
"2018-01-24 03:19:00",11.0,8.0,0.0,0.0,0,1010.0,2,4,"",82
"2018-01-24 03:20:00",11.0,8.0,0.0,0.0,0,1010.0,5,11,"",82
"2018-01-24 03:21:00",11.0,8.0,0.0,0.0,0,1010.1,4,8,"",82
"2018-01-24 03:22:00",10.9,7.9,0.0,0.0,0,1009.9,2,5,"",82
"2018-01-24 03:23:00",11.0,8.0,0.0,0.0,0,1010.0,6,11,"",82
"2018-01-24 03:24:00",11.0,8.0,0.0,0.0,0,1009.8,5,11,"",82
"2018-01-24 03:25:00",11.0,8.0,0.0,0.0,0,1010.0,6,12,"",82
"2018-01-24 03:26:00",11.0,8.0,0.0,0.0,0,1010.0,3,6,"",82
"2018-01-24 03:27:00",11.0,8.0,0.0,0.0,0,1009.9,10,27,"",82
"2018-01-24 03:28:00",11.0,8.0,0.0,0.0,0,1009.9,6,19,"",82
"2018-01-24 03:29:00",11.0,8.0,0.0,0.0,0,1009.9,10,15,"",82
"2018-01-24 03:30:00",11.0,8.0,0.0,0.0,0,1009.9,4,9,"",82
"2018-01-24 03:31:00",11.0,8.0,0.0,0.0,0,1009.8,4,10,"",82
"2018-01-24 03:32:00",11.0,8.0,0.0,0.0,0,1009.8,5,8,"",82
"2018-01-24 03:33:00",11.0,8.0,0.0,0.0,0,1009.8,4,7,"",82
"2018-01-24 03:34:00",11.0,8.0,0.0,0.0,0,1009.9,7,15,"",82
"2018-01-24 03:35:00",11.0,8.0,0.0,0.0,0,1009.9,9,13,"",82
"2018-01-24 03:36:00",11.0,8.0,0.0,0.0,0,1009.8,7,11,"",82
"2018-01-24 03:37:00",10.9,7.9,0.0,0.0,0,1009.7,6,11,"",82
"2018-01-24 03:38:00",10.9,7.9,0.0,0.0,0,1009.8,4,10,"",82
"2018-01-24 03:39:00",10.9,7.9,0.0,0.0,0,1009.6,7,11,"",82
"2018-01-24 03:40:00",10.9,7.9,0.0,0.0,0,1009.7,8,15,"",82
"2018-01-24 03:41:00",10.9,7.9,0.0,0.0,0,1009.7,3,6,"",82
"2018-01-24 03:42:00",10.9,7.9,0.0,0.0,0,1009.6,4,9,"",82
"2018-01-24 03:43:00",10.9,7.9,0.0,0.0,0,1009.5,4,6,"",82
"2018-01-24 03:44:00",10.9,7.9,0.0,0.0,0,1009.6,6,9,"",82
"2018-01-24 03:45:00",10.9,7.9,0.0,0.0,0,1009.6,5,10,"",82
"2018-01-24 03:46:00",11.0,8.0,0.0,0.0,0,1009.6,3,7,"",82
"2018-01-24 03:47:00",10.9,7.9,0.0,0.0,0,1009.6,5,16,"",82
"2018-01-24 03:48:00",11.0,8.0,0.0,0.0,0,1009.6,3,4,"",82
"2018-01-24 03:49:00",11.0,8.0,0.0,0.0,0,1009.6,6,11,"",82
"2018-01-24 03:50:00",11.0,8.0,0.0,0.0,0,1009.6,4,7,"",82
"2018-01-24 03:51:00",11.0,8.0,0.0,0.0,0,1009.5,5,10,"",82
"2018-01-24 03:52:00",11.0,8.0,0.0,0.0,0,1009.5,6,12,"",82
"2018-01-24 03:53:00",10.9,7.9,0.0,0.0,0,1009.7,3,5,"",82
"2018-01-24 03:54:00",10.9,7.9,0.0,0.0,0,1009.5,3,6,"",82
"2018-01-24 03:55:00",10.9,7.9,0.0,0.0,0,1009.5,4,6,"",82
"2018-01-24 03:56:00",10.9,7.9,0.0,0.0,0,1009.6,7,14,"",82
"2018-01-24 03:57:00",11.0,8.0,0.0,0.0,0,1009.5,5,10,"",82
"2018-01-24 03:58:00",10.9,7.9,0.0,0.0,0,1009.3,7,14,"",82
"2018-01-24 03:59:00",11.0,8.0,0.0,0.0,0,1009.5,4,6,"",82
"2018-01-24 04:00:00",10.9,7.9,0.0,0.0,0,1009.6,5,7,"",82
"2018-01-24 04:01:00",11.0,8.0,0.0,0.0,0,1009.5,8,11,"",82
"2018-01-24 04:02:00",10.9,7.9,0.0,0.0,0,1009.5,4,8,"",82
"2018-01-24 04:03:00",10.9,7.9,0.0,0.0,0,1009.5,6,10,"",82
"2018-01-24 04:04:00",11.0,8.0,0.0,0.0,0,1009.4,10,15,"",82
"2018-01-24 04:05:00",11.0,8.0,0.0,0.0,0,1009.4,6,12,"",82
"2018-01-24 04:06:00",11.0,8.0,0.0,0.0,0,1009.5,8,13,"",82
"2018-01-24 04:07:00",11.0,8.0,0.0,0.0,0,1009.4,6,10,"",82
"2018-01-24 04:08:00",11.0,8.0,0.0,0.0,0,1009.4,7,13,"",82
"2018-01-24 04:09:00",11.0,8.0,0.0,0.0,0,1009.2,4,6,"",82
"2018-01-24 04:10:00",11.0,8.0,0.0,0.0,0,1009.5,6,11,"",82
"2018-01-24 04:11:00",11.0,8.0,0.0,0.0,0,1009.2,4,8,"",82
"2018-01-24 04:12:00",11.0,8.0,0.0,0.0,0,1009.2,3,7,"",82
"2018-01-24 04:13:00",11.0,8.0,0.0,0.0,0,1009.2,6,13,"",82
"2018-01-24 04:14:00",11.0,8.0,0.0,0.0,0,1009.0,8,14,"",82
"2018-01-24 04:15:00",11.0,8.0,0.0,0.0,0,1009.0,8,13,"",82
"2018-01-24 04:16:00",11.0,8.0,0.0,0.0,0,1009.0,7,10,"",82
"2018-01-24 04:17:00",11.0,8.0,0.0,0.0,0,1009.0,4,8,"",82
"2018-01-24 04:18:00",11.0,8.0,0.0,0.0,0,1008.9,3,4,"",82
"2018-01-24 04:19:00",11.0,8.0,0.0,0.0,0,1008.8,6,10,"",82
"2018-01-24 04:20:00",11.0,8.0,0.0,0.0,0,1008.9,5,10,"",82
"2018-01-24 04:21:00",11.0,8.0,0.0,0.0,0,1008.9,5,10,"",82
"2018-01-24 04:22:00",11.0,8.0,0.0,0.0,0,1008.9,5,9,"",82
"2018-01-24 04:23:00",11.0,8.2,0.0,0.0,0,1008.8,4,7,"",83
"2018-01-24 04:24:00",11.0,8.2,0.0,0.0,0,1008.8,6,13,"",83
"2018-01-24 04:25:00",11.0,8.2,0.0,0.0,0,1008.9,5,8,"",83
"2018-01-24 04:26:00",11.1,8.1,0.0,0.0,0,1008.8,6,11,"",82
"2018-01-24 04:27:00",11.1,8.3,0.0,0.0,0,1008.9,4,6,"",83
"2018-01-24 04:28:00",11.0,8.2,0.0,0.0,0,1008.8,5,9,"",83
"2018-01-24 04:29:00",11.1,8.3,0.0,0.0,0,1008.8,4,7,"",83
"2018-01-24 04:30:00",11.1,8.3,0.0,0.0,0,1008.8,6,10,"",83
"2018-01-24 04:31:00",11.1,8.1,0.0,0.0,0,1008.8,7,11,"",82
"2018-01-24 04:32:00",11.1,8.3,0.0,0.0,0,1008.9,7,16,"",83
"2018-01-24 04:33:00",11.1,8.1,0.0,0.0,0,1008.7,7,11,"",82
"2018-01-24 04:34:00",11.1,8.1,0.0,0.0,0,1008.8,4,11,"",82
"2018-01-24 04:35:00",11.1,8.1,0.0,0.0,0,1008.8,6,11,"",82
"2018-01-24 04:36:00",11.1,8.1,0.0,0.0,0,1008.8,7,17,"",82
"2018-01-24 04:37:00",11.1,8.1,0.0,0.0,0,1008.5,7,17,"",82
"2018-01-24 04:38:00",11.1,8.1,0.0,0.0,0,1008.7,6,10,"",82
"2018-01-24 04:39:00",11.1,8.1,0.0,0.0,0,1008.7,7,11,"",82
"2018-01-24 04:40:00",11.1,8.1,0.0,0.0,0,1008.7,5,10,"",82
"2018-01-24 04:41:00",11.1,8.1,0.0,0.0,0,1008.7,4,10,"",82
"2018-01-24 04:42:00",11.1,8.1,0.0,0.0,0,1008.8,6,11,"",82
"2018-01-24 04:43:00",11.1,8.1,0.0,0.0,0,1008.7,7,12,"",82
"2018-01-24 04:44:00",11.1,8.1,0.0,0.0,0,1008.6,7,15,"",82
"2018-01-24 04:45:00",11.1,8.1,0.0,0.0,0,1008.7,5,9,"",82
"2018-01-24 04:46:00",11.1,8.1,0.0,0.0,0,1008.7,2,4,"",82
"2018-01-24 04:47:00",11.2,8.2,0.0,0.0,0,1008.6,6,13,"",82
"2018-01-24 04:48:00",11.2,8.2,0.0,0.0,0,1008.5,6,14,"",82
"2018-01-24 04:49:00",11.2,8.2,0.0,0.0,0,1008.6,4,7,"",82
"2018-01-24 04:50:00",11.2,8.2,0.0,0.0,0,1008.6,4,7,"",82
"2018-01-24 04:51:00",11.2,8.2,0.0,0.0,0,1008.6,5,8,"",82
"2018-01-24 04:52:00",11.2,8.2,0.0,0.0,0,1008.5,7,13,"",82
"2018-01-24 04:53:00",11.2,8.2,0.0,0.0,0,1008.4,8,13,"",82
"2018-01-24 04:54:00",11.2,8.2,0.0,0.0,0,1008.6,9,18,"",82
"2018-01-24 04:55:00",11.2,8.2,0.0,0.0,0,1008.4,8,14,"",82
"2018-01-24 04:56:00",11.2,8.2,0.0,0.0,0,1008.4,4,9,"",82
"2018-01-24 04:57:00",11.2,8.2,0.0,0.0,0,1008.4,6,13,"",82
"2018-01-24 04:58:00",11.3,8.3,0.0,0.0,0,1008.4,7,12,"",82
"2018-01-24 04:59:00",11.3,8.3,0.0,0.0,0,1008.3,5,9,"",82
"2018-01-24 05:00:00",11.3,8.3,0.0,0.0,0,1008.4,8,15,"",82
"2018-01-24 05:01:00",11.3,8.3,0.0,0.0,0,1008.4,4,7,"",82
"2018-01-24 05:02:00",11.3,8.3,0.0,0.0,0,1008.3,6,11,"",82
"2018-01-24 05:03:00",11.3,8.3,0.0,0.0,0,1008.2,4,7,"",82
"2018-01-24 05:04:00",11.3,8.3,0.0,0.0,0,1008.4,3,7,"",82
"2018-01-24 05:05:00",11.3,8.3,0.0,0.0,0,1008.3,4,7,"",82
"2018-01-24 05:06:00",11.3,8.3,0.0,0.0,0,1008.2,3,5,"",82
"2018-01-24 05:07:00",11.3,8.3,0.0,0.0,0,1008.2,3,5,"",82
"2018-01-24 05:08:00",11.3,8.3,0.0,0.0,0,1008.1,4,7,"",82
"2018-01-24 05:09:00",11.3,8.3,0.0,0.0,0,1008.1,3,4,"",82
"2018-01-24 05:10:00",11.3,8.3,0.0,0.0,0,1008.2,5,11,"",82
"2018-01-24 05:11:00",11.3,8.3,0.0,0.0,0,1008.1,4,7,"",82
"2018-01-24 05:12:00",11.3,8.3,0.0,0.0,0,1008.1,3,4,"",82
"2018-01-24 05:13:00",11.3,8.3,0.0,0.0,0,1008.0,3,9,"",82
"2018-01-24 05:14:00",11.3,8.3,0.0,0.0,0,1008.0,6,13,"",82
"2018-01-24 05:15:00",11.3,8.3,0.0,0.0,0,1008.1,3,6,"",82
"2018-01-24 05:16:00",11.3,8.3,0.0,0.0,0,1008.1,4,7,"",82
"2018-01-24 05:17:00",11.2,8.2,0.0,0.0,0,1008.2,4,7,"",82
"2018-01-24 05:18:00",11.3,8.3,0.0,0.0,0,1008.2,8,13,"",82
"2018-01-24 05:19:00",11.3,8.3,0.0,0.0,0,1008.1,6,10,"",82
"2018-01-24 05:20:00",11.3,8.3,0.0,0.0,0,1008.1,5,7,"",82
"2018-01-24 05:21:00",11.3,8.3,0.0,0.0,0,1008.1,3,5,"",82
"2018-01-24 05:22:00",11.3,8.3,0.0,0.0,0,1008.1,6,10,"",82
"2018-01-24 05:23:00",11.3,8.3,0.0,0.0,0,1008.1,5,10,"",82
"2018-01-24 05:24:00",11.3,8.3,0.0,0.0,0,1008.2,6,10,"",82
"2018-01-24 05:25:00",11.3,8.3,0.0,0.0,0,1008.1,6,11,"",82
"2018-01-24 05:26:00",11.3,8.3,0.0,0.0,0,1008.0,6,10,"",82
"2018-01-24 05:27:00",11.3,8.3,0.0,0.0,0,1008.2,7,10,"",82
"2018-01-24 05:28:00",11.3,8.3,0.0,0.0,0,1008.1,9,17,"",82
"2018-01-24 05:29:00",11.3,8.3,0.0,0.0,0,1008.0,7,12,"",82
"2018-01-24 05:30:00",11.3,8.3,0.0,0.0,0,1008.0,8,16,"",82
"2018-01-24 05:31:00",11.3,8.3,0.0,0.0,0,1008.0,5,7,"",82
"2018-01-24 05:32:00",11.3,8.3,0.0,0.0,0,1008.0,6,9,"",82
"2018-01-24 05:33:00",11.3,8.3,0.0,0.0,0,1008.0,3,6,"",82
"2018-01-24 05:34:00",11.3,8.3,0.0,0.0,0,1007.9,4,11,"",82
"2018-01-24 05:35:00",11.4,8.4,0.0,0.0,0,1007.8,9,16,"",82
"2018-01-24 05:36:00",11.4,8.4,0.2,0.0,0,1007.8,9,15,"",82
"2018-01-24 05:37:00",11.4,8.4,0.2,0.0,0,1007.8,7,13,"",82
"2018-01-24 05:38:00",11.4,8.4,0.2,0.0,0,1007.8,5,13,"",82
"2018-01-24 05:39:00",11.4,8.4,0.2,0.0,0,1008.0,5,8,"",82
"2018-01-24 05:40:00",11.4,8.4,0.2,0.0,0,1007.9,7,16,"",82
"2018-01-24 05:41:00",11.4,8.4,0.2,0.0,0,1007.9,4,7,"",82
"2018-01-24 05:42:00",11.4,8.4,0.2,0.0,0,1007.8,7,16,"",82
"2018-01-24 05:43:00",11.4,8.4,0.2,0.0,0,1007.8,4,7,"",82
"2018-01-24 05:44:00",11.4,8.4,0.2,0.0,0,1007.8,6,12,"",82
"2018-01-24 05:45:00",11.4,8.4,0.2,0.0,0,1007.8,4,7,"",82
"2018-01-24 05:46:00",11.4,8.4,0.2,0.0,0,1007.9,8,16,"",82
"2018-01-24 05:47:00",11.4,8.4,0.2,0.0,0,1007.8,4,8,"",82
"2018-01-24 05:48:00",11.4,8.4,0.2,0.0,0,1007.7,6,10,"",82
"2018-01-24 05:49:00",11.4,8.4,0.2,0.0,0,1007.8,8,17,"",82
"2018-01-24 05:50:00",11.4,8.4,0.2,0.0,0,1007.8,4,15,"",82
"2018-01-24 05:51:00",11.4,8.4,0.2,0.0,0,1007.7,4,11,"",82
"2018-01-24 05:52:00",11.4,8.4,0.2,0.0,0,1007.7,4,6,"",82
"2018-01-24 05:53:00",11.4,8.4,0.2,0.0,0,1007.5,5,9,"",82
"2018-01-24 05:54:00",11.4,8.4,0.2,0.0,0,1007.5,7,11,"",82
"2018-01-24 05:55:00",11.4,8.4,0.2,0.0,0,1007.5,5,10,"",82
"2018-01-24 05:56:00",11.4,8.4,0.2,0.0,0,1007.6,5,20,"",82
"2018-01-24 05:57:00",11.4,8.4,0.2,0.0,0,1007.5,6,12,"",82
"2018-01-24 05:58:00",11.4,8.4,0.2,0.0,0,1007.5,6,11,"",82
"2018-01-24 05:59:00",11.4,8.4,0.2,0.0,0,1007.6,6,11,"",82
"2018-01-24 06:00:00",11.4,8.4,0.2,0.0,0,1007.5,6,10,"",82
"2018-01-24 06:01:00",11.4,8.4,0.2,0.0,0,1007.5,6,13,"",82
"2018-01-24 06:02:00",11.4,8.4,0.2,0.0,0,1007.5,4,8,"",82
"2018-01-24 06:03:00",11.4,8.4,0.2,0.0,0,1007.3,6,13,"",82
"2018-01-24 06:04:00",11.4,8.4,0.2,0.0,0,1007.3,5,14,"",82
"2018-01-24 06:05:00",11.4,8.4,0.2,0.0,0,1007.3,8,14,"",82
"2018-01-24 06:06:00",11.4,8.4,0.2,0.0,0,1007.4,4,12,"",82
"2018-01-24 06:07:00",11.4,8.4,0.2,0.0,0,1007.4,6,11,"",82
"2018-01-24 06:08:00",11.4,8.4,0.2,0.0,0,1007.4,6,11,"",82
"2018-01-24 06:09:00",11.5,8.5,0.2,0.0,0,1007.4,6,9,"",82
"2018-01-24 06:10:00",11.4,8.4,0.2,0.0,0,1007.4,7,10,"",82
"2018-01-24 06:11:00",11.4,8.4,0.2,0.0,0,1007.4,5,8,"",82
"2018-01-24 06:12:00",11.4,8.4,0.2,0.0,0,1007.3,4,6,"",82
"2018-01-24 06:13:00",11.5,8.5,0.2,0.0,0,1007.3,4,6,"",82
"2018-01-24 06:14:00",11.5,8.5,0.2,0.0,0,1007.3,3,5,"",82
"2018-01-24 06:15:00",11.5,8.5,0.2,0.0,0,1007.3,4,6,"",82
"2018-01-24 06:16:00",11.4,8.4,0.2,0.0,0,1007.3,8,12,"",82
"2018-01-24 06:17:00",11.4,8.4,0.2,0.0,0,1007.3,6,10,"",82
"2018-01-24 06:18:00",11.4,8.4,0.2,0.0,0,1007.3,7,15,"",82
"2018-01-24 06:19:00",11.4,8.4,0.2,0.0,0,1007.1,6,12,"",82
"2018-01-24 06:20:00",11.4,8.4,0.2,0.0,0,1007.2,3,5,"",82
"2018-01-24 06:21:00",11.4,8.4,0.2,0.0,0,1007.1,3,5,"",82
"2018-01-24 06:22:00",11.4,8.4,0.2,0.0,0,1007.0,8,20,"",82
"2018-01-24 06:23:00",11.4,8.4,0.2,0.0,0,1007.1,5,9,"",82
"2018-01-24 06:24:00",11.4,8.4,0.2,0.0,0,1007.0,4,8,"",82
"2018-01-24 06:25:00",11.4,8.4,0.2,0.0,0,1006.9,9,18,"",82
"2018-01-24 06:26:00",11.4,8.4,0.2,0.0,0,1006.9,4,7,"",82
"2018-01-24 06:27:00",11.4,8.4,0.2,0.0,0,1007.0,7,14,"",82
"2018-01-24 06:28:00",11.4,8.6,0.2,0.0,0,1006.9,6,12,"",83
"2018-01-24 06:29:00",11.4,8.6,0.2,0.0,0,1007.0,5,9,"",83
"2018-01-24 06:30:00",11.4,8.4,0.2,0.0,0,1007.0,3,9,"",82
"2018-01-24 06:31:00",11.4,8.4,0.2,0.0,0,1006.9,7,9,"",82
"2018-01-24 06:32:00",11.4,8.4,0.2,0.0,0,1006.9,8,16,"",82
"2018-01-24 06:33:00",11.4,8.6,0.2,0.0,0,1006.9,4,8,"",83
"2018-01-24 06:34:00",11.4,8.6,0.2,0.0,0,1007.0,5,11,"",83
"2018-01-24 06:35:00",11.4,8.6,0.2,0.0,0,1007.0,5,16,"",83
"2018-01-24 06:36:00",11.4,8.6,0.2,0.0,0,1006.8,3,6,"",83
"2018-01-24 06:37:00",11.4,8.6,0.2,0.0,0,1007.0,8,16,"",83
"2018-01-24 06:38:00",11.4,8.6,0.2,0.0,0,1006.9,4,8,"",83
"2018-01-24 06:39:00",11.4,8.6,0.2,0.0,0,1006.9,4,7,"",83
"2018-01-24 06:40:00",11.4,8.6,0.2,0.0,0,1007.0,8,18,"",83
"2018-01-24 06:41:00",11.4,8.6,0.4,0.0,0,1006.9,3,5,"",83
"2018-01-24 06:42:00",11.4,8.6,0.4,0.0,0,1006.9,8,16,"",83
"2018-01-24 06:43:00",11.4,8.6,0.4,0.0,0,1006.9,7,16,"",83
"2018-01-24 06:44:00",11.4,8.6,0.4,0.0,0,1007.0,5,11,"",83
"2018-01-24 06:45:00",11.4,8.6,0.4,0.0,0,1006.8,7,12,"",83
"2018-01-24 06:46:00",11.4,8.6,0.4,0.0,0,1006.9,7,11,"",83
"2018-01-24 06:47:00",11.4,8.6,0.4,0.0,0,1006.9,3,9,"",83